{"data":{"norad_id":66098,"epoch":"2026-09-20T06:07:53.186880Z","epoch_age_seconds":121208,"freshness":"FRESH","line1":"1 66098U 25236N   26263.25547670  .00012657  00000+0  38485-3 0  9993","line2":"2 66098  53.1575 276.5782 0001021  79.4923 280.6195 15.34420034 52770","mean_motion":15.34420034,"eccentricity":0.0001021,"inclination_deg":53.1575,"raan_deg":276.5782,"arg_perigee_deg":79.4923,"mean_anomaly_deg":280.6195,"bstar":0.00038485,"rev_number":5277,"period_min":93.846532767572,"perigee_km":461.94525187599,"apogee_km":463.34213929402,"semimajor_km":6840.780695585,"source":"CELESTRAK","updated_at":"2026-09-21T09:00:35.802592Z"}}